Location: Krakow
(50.0212°N, 19.9423°E)
Time: 03:51:49
(UTC+02:00)

NOAA 15 - Visible Passes

Search period start: 12 September 2024 00:00
Search period end: 22 September 2024 00:00
Orbit: 794 x 811 km, 98.6° (Epoch: 11 September)

Date Brightness Start Highest point End Pass type
(mag) Time Alt. Az. Time Alt. Az. Time Alt. Az.
12 Sep 7.0 20:30:09 10° SW 20:34:16 23° W 20:38:24 10° NW visible
13 Sep 6.2 20:03:23 10° SSW 20:08:12 36° W 20:13:02 10° NNW visible
14 Sep 5.3 19:37:04 10° S 19:42:13 59° WSW 19:47:24 10° NNW visible
15 Sep 7.4 20:53:49 10° WSW 20:56:48 15° W 20:59:49 10° NW visible
16 Sep 6.9 20:26:25 10° SSW 20:30:39 24° W 20:34:53 10° NW visible
17 Sep 6.1 19:59:42 10° SSW 20:04:35 39° W 20:09:29 10° NNW visible
18 Sep 5.1 19:33:26 10° S 19:38:37 63° WSW 19:43:49 10° NNW visible
19 Sep 4.6 19:07:30 10° SSE 19:12:44 83° ENE 19:18:00 10° NNW visible
19 Sep 7.3 20:49:56 10° SW 20:53:09 16° W 20:56:23 10° NW visible
20 Sep 6.8 20:22:39 10° SSW 20:27:00 26° W 20:31:22 10° NW visible
21 Sep 5.9 19:56:01 10° SSW 20:00:56 41° W 20:05:54 10° NNW visible
